THA1123 VTBS-VTCC

Flight info

Callsign THA1123
Flight time 1h 10m
Altitude 34000
Route OLVUK1G OLVUK Y26 MARNI MARNI2A
Aircraft A346/H-SDE2E3FGHIJ3J4J5M1RWXY/LB1D1

Departure

Time 2026-05-06 00:21
Airport Suvarnabhumi Airport (VTBS)

Arrival

Time 2026-05-06 01:32
Airport Chiang Mai International Airport (VTCC)
Time Latitude Longitude Altitude Speed Heading
2026-05-06 00:08 13.68637 100.75386 17 ft 0 kts 284°
2026-05-06 00:09 13.68635 100.75393 17 ft 2 kts 285°
2026-05-06 00:09 13.68631 100.75408 17 ft 2 kts 284°
2026-05-06 00:09 13.68627 100.75423 17 ft 2 kts 284°
2026-05-06 00:09 13.68624 100.75438 17 ft 2 kts 270°
2026-05-06 00:10 13.68627 100.75453 17 ft 2 kts 244°
2026-05-06 00:10 13.68635 100.75466 17 ft 2 kts 223°
2026-05-06 00:10 13.68648 100.75474 17 ft 2 kts 201°
2026-05-06 00:10 13.68662 100.75478 17 ft 2 kts 190°
2026-05-06 00:11 13.68677 100.75481 17 ft 2 kts 193°
2026-05-06 00:11 13.68691 100.75485 17 ft 2 kts 194°
2026-05-06 00:11 13.68706 100.75489 17 ft 2 kts 194°
2026-05-06 00:11 13.68712 100.75491 17 ft 0 kts 194°
2026-05-06 00:13 13.68707 100.75489 17 ft 4 kts 194°
2026-05-06 00:13 13.68614 100.75466 17 ft 19 kts 193°
2026-05-06 00:13 13.68531 100.75396 17 ft 16 kts 268°
2026-05-06 00:14 13.68556 100.75272 17 ft 18 kts 284°
2026-05-06 00:14 13.68590 100.75138 17 ft 20 kts 284°
2026-05-06 00:14 13.68627 100.74991 17 ft 22 kts 284°
2026-05-06 00:14 13.68666 100.74833 17 ft 21 kts 284°
2026-05-06 00:15 13.68703 100.74681 17 ft 22 kts 284°
2026-05-06 00:15 13.68743 100.74521 17 ft 21 kts 284°
2026-05-06 00:15 13.68775 100.74393 17 ft 15 kts 284°
2026-05-06 00:15 13.68800 100.74288 17 ft 16 kts 284°
2026-05-06 00:16 13.68825 100.74187 17 ft 14 kts 284°
2026-05-06 00:16 13.68812 100.74096 17 ft 14 kts 217°
2026-05-06 00:16 13.68708 100.74062 17 ft 16 kts 194°
2026-05-06 00:16 13.68588 100.74031 17 ft 18 kts 194°
2026-05-06 00:17 13.68456 100.73997 17 ft 20 kts 194°
2026-05-06 00:17 13.68312 100.73959 17 ft 22 kts 194°
2026-05-06 00:17 13.68154 100.73917 17 ft 23 kts 194°
2026-05-06 00:17 13.67988 100.73875 17 ft 25 kts 194°
2026-05-06 00:18 13.67811 100.73827 17 ft 27 kts 194°
2026-05-06 00:18 13.67628 100.73780 17 ft 23 kts 194°
2026-05-06 00:18 13.67485 100.73743 17 ft 21 kts 194°
2026-05-06 00:18 13.67333 100.73703 17 ft 23 kts 194°
2026-05-06 00:19 13.67182 100.73663 17 ft 17 kts 194°
2026-05-06 00:19 13.67107 100.73622 17 ft 9 kts 244°
2026-05-06 00:19 13.67103 100.73557 17 ft 10 kts 289°
2026-05-06 00:19 13.67160 100.73496 17 ft 13 kts 336°
2026-05-06 00:20 13.67249 100.73499 17 ft 5 kts 15°
2026-05-06 00:20 13.67270 100.73505 17 ft 14 kts 14°
2026-05-06 00:20 13.67613 100.73595 17 ft 90 kts 14°
2026-05-06 00:20 13.68467 100.73819 18 ft 158 kts 14°
2026-05-06 00:21 13.69654 100.74128 424 ft 179 kts 16°
2026-05-06 00:21 13.70836 100.74453 1132 ft 180 kts 17°
2026-05-06 00:21 13.72033 100.74809 1875 ft 180 kts 18°
2026-05-06 00:21 13.73275 100.75213 2433 ft 191 kts 19°
2026-05-06 00:22 13.74619 100.75560 2955 ft 205 kts 14°
2026-05-06 00:22 13.76077 100.75893 3430 ft 223 kts 14°
2026-05-06 00:22 13.77648 100.76270 3872 ft 244 kts 15°
2026-05-06 00:22 13.79378 100.76708 4388 ft 264 kts 15°
2026-05-06 00:23 13.81188 100.77176 5120 ft 273 kts 15°
2026-05-06 00:23 13.83068 100.77666 6044 ft 277 kts 15°
2026-05-06 00:23 13.84973 100.78165 6988 ft 279 kts 16°
2026-05-06 00:23 13.86901 100.78672 7885 ft 283 kts 15°
2026-05-06 00:24 13.88813 100.79176 8725 ft 287 kts 15°
2026-05-06 00:24 13.90745 100.79684 9539 ft 290 kts 16°
2026-05-06 00:24 13.92696 100.80199 10327 ft 293 kts 15°
2026-05-06 00:24 13.94701 100.80730 10840 ft 307 kts 15°
2026-05-06 00:25 13.96850 100.81298 11221 ft 326 kts 15°
2026-05-06 00:25 13.99115 100.81895 11582 ft 344 kts 15°
2026-05-06 00:25 14.01515 100.82527 11965 ft 361 kts 15°
2026-05-06 00:25 14.03983 100.83178 12607 ft 368 kts 15°
2026-05-06 00:26 14.06471 100.83836 13347 ft 372 kts 15°
2026-05-06 00:26 14.08984 100.84499 14078 ft 376 kts 14°
2026-05-06 00:26 14.11559 100.85179 14793 ft 380 kts 15°
2026-05-06 00:26 14.14139 100.85860 15490 ft 384 kts 15°
2026-05-06 00:27 14.16738 100.86548 16169 ft 388 kts 15°
2026-05-06 00:27 14.19374 100.87246 16838 ft 391 kts 15°
2026-05-06 00:27 14.22028 100.87949 17499 ft 394 kts 15°
2026-05-06 00:27 14.24709 100.88538 18113 ft 398 kts
2026-05-06 00:28 14.27485 100.88275 18693 ft 404 kts 345°
2026-05-06 00:28 14.30072 100.87060 19302 ft 409 kts 326°
2026-05-06 00:28 14.32169 100.85016 19883 ft 414 kts 307°
2026-05-06 00:28 14.33501 100.82387 20433 ft 419 kts 288°
2026-05-06 00:29 14.34227 100.79471 21016 ft 422 kts 284°
2026-05-06 00:29 14.34927 100.76514 21566 ft 426 kts 284°
2026-05-06 00:29 14.35645 100.73554 22094 ft 429 kts 285°
2026-05-06 00:29 14.36391 100.70551 22644 ft 432 kts 285°
2026-05-06 00:30 14.37149 100.67535 23189 ft 435 kts 285°
2026-05-06 00:30 14.37917 100.64487 23722 ft 438 kts 285°
2026-05-06 00:30 14.38683 100.61450 24238 ft 441 kts 285°
2026-05-06 00:30 14.39453 100.58385 24742 ft 445 kts 285°
2026-05-06 00:31 14.40231 100.55282 25243 ft 448 kts 285°
2026-05-06 00:31 14.41031 100.52088 25747 ft 451 kts 285°
2026-05-06 00:31 14.41845 100.48834 26250 ft 454 kts 285°
2026-05-06 00:31 14.42649 100.45621 26726 ft 458 kts 285°
2026-05-06 00:32 14.43438 100.42465 27173 ft 461 kts 285°
2026-05-06 00:32 14.44249 100.39248 27623 ft 464 kts 285°
2026-05-06 00:32 14.45106 100.36015 28059 ft 467 kts 289°
2026-05-06 00:32 14.46524 100.33011 28455 ft 469 kts 304°
2026-05-06 00:33 14.48623 100.30440 29024 ft 468 kts 317°
2026-05-06 00:33 14.51204 100.28466 29704 ft 464 kts 330°
2026-05-06 00:33 14.54071 100.26975 30440 ft 459 kts 334°
2026-05-06 00:33 14.56949 100.25556 31145 ft 456 kts 335°
2026-05-06 00:34 14.59772 100.24161 31804 ft 453 kts 334°
2026-05-06 00:34 14.62633 100.22738 32454 ft 451 kts 335°
2026-05-06 00:34 14.65510 100.21433 33034 ft 451 kts 338°
2026-05-06 00:34 14.68430 100.20289 33535 ft 452 kts 341°
2026-05-06 00:35 14.71440 100.19257 33853 ft 455 kts 342°
2026-05-06 00:35 14.77488 100.17248 33858 ft 456 kts 342°
2026-05-06 00:36 14.83559 100.15234 33860 ft 457 kts 342°
2026-05-06 00:36 14.89632 100.13213 33859 ft 456 kts 342°
2026-05-06 00:37 14.95687 100.11193 33859 ft 456 kts 342°
2026-05-06 00:37 15.01726 100.09179 33858 ft 457 kts 342°
2026-05-06 00:38 15.07802 100.07162 33859 ft 457 kts 342°
2026-05-06 00:38 15.13861 100.05147 33859 ft 457 kts 342°
2026-05-06 00:39 15.19927 100.03125 33852 ft 457 kts 342°
2026-05-06 00:39 15.25971 100.01109 33847 ft 457 kts 342°
2026-05-06 00:40 15.32019 99.99090 33848 ft 456 kts 342°
2026-05-06 00:40 15.38107 99.97056 33845 ft 457 kts 341°
2026-05-06 00:41 15.44139 99.95039 33850 ft 457 kts 341°
2026-05-06 00:41 15.50359 99.92959 33858 ft 457 kts 341°
2026-05-06 00:42 15.56735 99.90824 33862 ft 457 kts 341°
2026-05-06 00:42 15.62958 99.88739 33860 ft 457 kts 341°
2026-05-06 00:43 15.69246 99.86632 33864 ft 457 kts 341°
2026-05-06 00:43 15.75313 99.84597 33861 ft 457 kts 341°
2026-05-06 00:44 15.81360 99.82568 33871 ft 457 kts 341°
2026-05-06 00:44 15.87416 99.80534 33880 ft 458 kts 341°
2026-05-06 00:45 15.93517 99.78507 33885 ft 458 kts 342°
2026-05-06 00:45 15.99613 99.76543 33878 ft 458 kts 342°
2026-05-06 00:46 16.05724 99.74565 33882 ft 458 kts 342°
2026-05-06 00:46 16.11870 99.72568 33885 ft 457 kts 342°
2026-05-06 00:47 16.17992 99.70573 33886 ft 458 kts 342°
2026-05-06 00:47 16.24117 99.68574 33883 ft 458 kts 341°
2026-05-06 00:48 16.30201 99.66588 33888 ft 457 kts 342°
2026-05-06 00:48 16.36293 99.64597 33894 ft 458 kts 342°
2026-05-06 00:49 16.42403 99.62599 33888 ft 457 kts 341°
2026-05-06 00:49 16.48479 99.60612 33883 ft 457 kts 341°
2026-05-06 00:50 16.54530 99.58630 33884 ft 457 kts 341°
2026-05-06 00:50 16.57343 99.57709 33699 ft 457 kts 341°
2026-05-06 00:50 16.59038 99.57153 33540 ft 456 kts 341°
2026-05-06 00:50 16.62082 99.56155 33252 ft 454 kts 341°
2026-05-06 00:51 16.65111 99.55163 32968 ft 451 kts 341°
2026-05-06 00:51 16.68136 99.54170 32681 ft 450 kts 341°
2026-05-06 00:51 16.71149 99.53181 32392 ft 450 kts 341°
2026-05-06 00:51 16.74138 99.52200 32029 ft 451 kts 341°
2026-05-06 00:52 16.77138 99.51215 31562 ft 452 kts 341°
2026-05-06 00:52 16.80123 99.50234 30974 ft 453 kts 341°
2026-05-06 00:52 16.83133 99.49246 30357 ft 453 kts 341°
2026-05-06 00:52 16.86132 99.48261 29668 ft 456 kts 341°
2026-05-06 00:53 16.89177 99.47260 28934 ft 459 kts 341°
2026-05-06 00:53 16.92240 99.46252 28214 ft 461 kts 341°
2026-05-06 00:53 16.95315 99.45241 27742 ft 457 kts 341°
2026-05-06 00:53 16.98323 99.44250 27326 ft 452 kts 341°
2026-05-06 00:54 17.01304 99.43269 26931 ft 447 kts 341°
2026-05-06 00:54 17.04240 99.42303 26535 ft 442 kts 341°
2026-05-06 00:54 17.07165 99.41339 26144 ft 438 kts 341°
2026-05-06 00:54 17.10060 99.40386 25769 ft 433 kts 341°
2026-05-06 00:55 17.12951 99.39432 25347 ft 429 kts 341°
2026-05-06 00:55 17.15774 99.38502 24921 ft 426 kts 341°
2026-05-06 00:55 17.18606 99.37568 24519 ft 422 kts 341°
2026-05-06 00:55 17.21380 99.36653 24134 ft 418 kts 341°
2026-05-06 00:56 17.24159 99.35736 23741 ft 415 kts 341°
2026-05-06 00:56 17.26893 99.34832 23337 ft 412 kts 341°
2026-05-06 00:56 17.29639 99.33925 22945 ft 408 kts 341°
2026-05-06 00:56 17.32320 99.33040 22578 ft 405 kts 341°
2026-05-06 00:57 17.35045 99.32140 22199 ft 401 kts 341°
2026-05-06 00:57 17.37831 99.31217 21799 ft 398 kts 341°
2026-05-06 00:57 17.40550 99.30318 21390 ft 396 kts 341°
2026-05-06 00:57 17.43309 99.29404 20947 ft 395 kts 341°
2026-05-06 00:58 17.46048 99.28499 20497 ft 394 kts 341°
2026-05-06 00:58 17.48801 99.27587 20044 ft 392 kts 341°
2026-05-06 00:58 17.51391 99.26730 19628 ft 390 kts 341°
2026-05-06 00:58 17.53977 99.25873 19199 ft 389 kts 341°
2026-05-06 00:59 17.56553 99.25020 18783 ft 387 kts 341°
2026-05-06 00:59 17.59112 99.24171 18358 ft 385 kts 341°
2026-05-06 00:59 17.61664 99.23325 17928 ft 384 kts 341°
2026-05-06 00:59 17.64211 99.22480 17506 ft 382 kts 341°
2026-05-06 01:00 17.66749 99.21637 17073 ft 381 kts 341°
2026-05-06 01:00 17.69273 99.20800 16641 ft 379 kts 341°
2026-05-06 01:00 17.71762 99.19974 16223 ft 378 kts 341°
2026-05-06 01:00 17.74262 99.19146 15802 ft 376 kts 341°
2026-05-06 01:01 17.76757 99.18317 15376 ft 375 kts 341°
2026-05-06 01:01 17.79240 99.17493 14959 ft 373 kts 341°
2026-05-06 01:01 17.81713 99.16671 14543 ft 372 kts 341°
2026-05-06 01:01 17.84208 99.15842 14118 ft 370 kts 341°
2026-05-06 01:02 17.86632 99.15036 13716 ft 368 kts 340°
2026-05-06 01:02 17.89071 99.14224 13309 ft 366 kts 340°
2026-05-06 01:02 17.91493 99.13419 12912 ft 363 kts 341°
2026-05-06 01:02 17.93900 99.12617 12520 ft 361 kts 341°
2026-05-06 01:03 17.96289 99.11821 12129 ft 358 kts 341°
2026-05-06 01:03 17.98643 99.11035 11744 ft 355 kts 341°
2026-05-06 01:03 18.01003 99.10250 11350 ft 353 kts 341°
2026-05-06 01:03 18.03338 99.09473 10945 ft 351 kts 341°
2026-05-06 01:04 18.05679 99.08693 10611 ft 346 kts 341°
2026-05-06 01:04 18.07589 99.08057 10520 ft 335 kts 341°
2026-05-06 01:04 18.09778 99.07329 10418 ft 322 kts 341°
2026-05-06 01:04 18.12580 99.06394 10283 ft 307 kts 340°
2026-05-06 01:05 18.14572 99.05730 10189 ft 295 kts 340°
2026-05-06 01:05 18.16503 99.05085 10099 ft 285 kts 340°
2026-05-06 01:05 18.18381 99.04457 9859 ft 282 kts 340°
2026-05-06 01:05 18.20251 99.03831 9531 ft 282 kts 340°
2026-05-06 01:06 18.22129 99.03203 9216 ft 282 kts 340°
2026-05-06 01:06 18.23378 99.02784 9014 ft 281 kts 340°
2026-05-06 01:06 18.25855 99.01956 8617 ft 280 kts 340°
2026-05-06 01:06 18.27087 99.01543 8419 ft 279 kts 341°
2026-05-06 01:07 18.29551 99.00720 8024 ft 277 kts 340°
2026-05-06 01:07 18.31392 99.00105 7727 ft 275 kts 340°
2026-05-06 01:07 18.33198 98.99501 7430 ft 274 kts 341°
2026-05-06 01:07 18.34413 98.99094 7226 ft 273 kts 340°
2026-05-06 01:08 18.36818 98.98290 6881 ft 269 kts 340°
2026-05-06 01:08 18.38565 98.97707 6807 ft 257 kts 340°
2026-05-06 01:08 18.39705 98.97325 6759 ft 249 kts 340°
2026-05-06 01:08 18.41834 98.96615 6656 ft 237 kts 341°
2026-05-06 01:09 18.43475 98.96250 6559 ft 239 kts 353°
2026-05-06 01:09 18.45142 98.96191 6542 ft 240 kts 358°
2026-05-06 01:09 18.46827 98.96201 6539 ft 239 kts 359°
2026-05-06 01:09 18.48484 98.96218 6531 ft 239 kts 359°
2026-05-06 01:10 18.50154 98.96231 6525 ft 239 kts 359°
2026-05-06 01:10 18.51815 98.96242 6530 ft 238 kts 358°
2026-05-06 01:10 18.52931 98.96248 6534 ft 238 kts 358°
2026-05-06 01:10 18.55136 98.96255 6541 ft 238 kts 358°
2026-05-06 01:11 18.56256 98.96257 6540 ft 239 kts 358°
2026-05-06 01:11 18.58480 98.96262 6534 ft 240 kts 358°
2026-05-06 01:11 18.59589 98.96265 6537 ft 240 kts 358°
2026-05-06 01:11 18.61829 98.96272 6532 ft 239 kts 357°
2026-05-06 01:12 18.63509 98.96275 6533 ft 239 kts 358°
2026-05-06 01:12 18.65171 98.96280 6537 ft 239 kts 358°
2026-05-06 01:12 18.66281 98.96283 6545 ft 239 kts 358°
2026-05-06 01:12 18.68499 98.96289 6547 ft 238 kts 358°
2026-05-06 01:13 18.70167 98.96294 6545 ft 238 kts 358°
2026-05-06 01:13 18.71847 98.96299 6545 ft 238 kts 358°
2026-05-06 01:13 18.73495 98.96304 6545 ft 238 kts 358°
2026-05-06 01:13 18.74608 98.96307 6546 ft 238 kts 358°
2026-05-06 01:14 18.78493 98.96383 6547 ft 238 kts 358°
2026-05-06 01:14 18.79592 98.96399 6547 ft 238 kts 358°
2026-05-06 01:14 18.81827 98.96431 6548 ft 239 kts 358°
2026-05-06 01:15 18.83494 98.96454 6549 ft 239 kts 358°
2026-05-06 01:15 18.85150 98.96478 6548 ft 239 kts 358°
2026-05-06 01:15 18.86258 98.96493 6545 ft 239 kts 358°
2026-05-06 01:15 18.88501 98.96525 6550 ft 239 kts 358°
2026-05-06 01:16 18.89612 98.96538 6551 ft 239 kts 358°
2026-05-06 01:16 18.91828 98.96565 6553 ft 239 kts 358°
2026-05-06 01:16 18.93498 98.96587 6558 ft 239 kts 358°
2026-05-06 01:16 18.95163 98.96608 6559 ft 238 kts 358°
2026-05-06 01:17 18.96834 98.96632 6554 ft 238 kts 358°
2026-05-06 01:17 18.97937 98.96648 6549 ft 238 kts 358°
2026-05-06 01:17 19.00157 98.96680 6547 ft 238 kts 358°
2026-05-06 01:17 19.01266 98.96696 6551 ft 239 kts 358°
2026-05-06 01:18 19.03510 98.96733 6555 ft 239 kts 358°
2026-05-06 01:18 19.04641 98.96752 6556 ft 239 kts 358°
2026-05-06 01:18 19.06296 98.96778 6560 ft 240 kts 358°
2026-05-06 01:18 19.07961 98.96934 6546 ft 243 kts 18°
2026-05-06 01:19 19.09594 98.98547 6550 ft 251 kts 69°
2026-05-06 01:19 19.09848 98.99747 6550 ft 252 kts 90°
2026-05-06 01:19 19.09427 99.01529 6557 ft 250 kts 124°
2026-05-06 01:19 19.08185 99.02760 6562 ft 246 kts 158°
2026-05-06 01:20 19.06547 99.03106 6561 ft 241 kts 189°
2026-05-06 01:20 19.04870 99.02856 6555 ft 241 kts 185°
2026-05-06 01:20 19.03177 99.02850 6552 ft 242 kts 180°
2026-05-06 01:20 19.00929 99.02969 6550 ft 242 kts 179°
2026-05-06 01:21 18.99792 99.03040 6547 ft 242 kts 179°
2026-05-06 01:21 18.98113 99.03146 6544 ft 241 kts 180°
2026-05-06 01:21 18.96421 99.03216 6545 ft 241 kts 181°
2026-05-06 01:21 18.94758 99.03244 6594 ft 242 kts 182°
2026-05-06 01:22 18.93039 99.03226 6292 ft 242 kts 184°
2026-05-06 01:22 18.91355 99.03194 6084 ft 238 kts 184°
2026-05-06 01:22 18.89731 99.03172 5922 ft 233 kts 182°
2026-05-06 01:22 18.88080 99.03194 5638 ft 233 kts 181°
2026-05-06 01:23 18.86428 99.03222 5376 ft 232 kts 182°
2026-05-06 01:23 18.84816 99.03189 5124 ft 230 kts 182°
2026-05-06 01:23 18.82689 99.03185 4819 ft 227 kts 181°
2026-05-06 01:23 18.81635 99.03203 4669 ft 225 kts 180°
2026-05-06 01:24 18.80057 99.03227 4457 ft 223 kts 181°
2026-05-06 01:24 18.77975 99.03174 4166 ft 223 kts 182°
2026-05-06 01:24 18.76952 99.03142 3970 ft 224 kts 182°
2026-05-06 01:24 18.75368 99.03097 3666 ft 224 kts 182°
2026-05-06 01:25 18.73332 99.03054 3287 ft 213 kts 181°
2026-05-06 01:25 18.72362 99.03040 3124 ft 206 kts 180°
2026-05-06 01:25 18.70988 99.03021 3000 ft 189 kts 181°
2026-05-06 01:25 18.69704 99.02999 2965 ft 173 kts 181°
2026-05-06 01:26 18.68514 99.02984 2968 ft 170 kts 181°
2026-05-06 01:26 18.67326 99.02969 2969 ft 170 kts 181°
2026-05-06 01:26 18.65745 99.02947 2971 ft 169 kts 181°
2026-05-06 01:26 18.64955 99.02936 2971 ft 169 kts 181°
2026-05-06 01:27 18.63375 99.02904 2972 ft 168 kts 181°
2026-05-06 01:27 18.62255 99.02631 2937 ft 168 kts 220°
2026-05-06 01:27 18.61812 99.01952 2938 ft 169 kts 257°
2026-05-06 01:27 18.62097 99.00383 2953 ft 170 kts 309°
2026-05-06 01:28 18.62679 98.99828 2949 ft 170 kts 323°
2026-05-06 01:28 18.63641 98.99069 2920 ft 169 kts 324°
2026-05-06 01:28 18.64574 98.98336 2921 ft 165 kts 324°
2026-05-06 01:28 18.65488 98.97623 2842 ft 161 kts 325°
2026-05-06 01:29 18.66404 98.96938 2665 ft 159 kts 327°
2026-05-06 01:29 18.67734 98.96352 2426 ft 158 kts 357°
2026-05-06 01:29 18.68468 98.96298 2307 ft 157 kts 356°
2026-05-06 01:29 18.69570 98.96268 2108 ft 156 kts 360°
2026-05-06 01:30 18.70655 98.96274 1909 ft 155 kts
2026-05-06 01:30 18.71734 98.96281 1712 ft 154 kts
2026-05-06 01:30 18.72809 98.96291 1515 ft 154 kts
2026-05-06 01:30 18.73883 98.96287 1315 ft 153 kts
2026-05-06 01:31 18.75310 98.96289 1057 ft 152 kts
2026-05-06 01:31 18.75987 98.96291 1024 ft 134 kts 360°
2026-05-06 01:31 18.76916 98.96292 1038 ft 66 kts 360°
2026-05-06 01:31 18.77184 98.96292 1043 ft 52 kts
2026-05-06 01:32 18.77478 98.96305 1046 ft 34 kts 18°
2026-05-06 01:32 18.77622 98.96390 1047 ft 17 kts 34°
2026-05-06 01:32 18.77698 98.96488 1046 ft 10 kts 117°
2026-05-06 01:32 18.77655 98.96519 1045 ft 12 kts 167°
2026-05-06 01:33 18.77553 98.96520 1043 ft 16 kts 180°
2026-05-06 01:33 18.77378 98.96521 1039 ft 20 kts 180°
2026-05-06 01:33 18.77278 98.96521 1039 ft 21 kts 180°
2026-05-06 01:33 18.77162 98.96534 1038 ft 16 kts 153°
2026-05-06 01:34 18.77034 98.96631 1034 ft 10 kts 158°
2026-05-06 01:34 18.76998 98.96645 1033 ft 7 kts 144°
2026-05-06 01:34 18.76985 98.96693 1032 ft 5 kts 94°
2026-05-06 01:34 18.76984 98.96715 1032 ft 0 kts 90°